FLOCK 4V-24 (46738 NORAD) Tracking and Keplerian Element Data
This shows tracking and keplerian element data for the satellite.
Feedback or suggestion? Click here.
Element | Value |
Catalog | 46738 |
Name | FLOCK 4V-24 |
Epoch Orbit | 1448 |
Epoch Day | 27.23997996 |
Epoch Year | 2021 |
RAAN | 103.6927 |
Inclination | 97.4622 |
Eccentricity | 0.0008297 |
Argument of Perigee | 98.6316 |
Mean Anonmoly | 261.5857 |
Mean Motion | 15.15168218 |
Decay Rate | 2.372E-05 |
L1 | 1 46738U 20061BN 21027.23997996 .00002372 00000-0 12986-3 0 9996 |
L2 | 2 46738 97.4622 103.6927 0008297 98.6316 261.5857 15.15168218 14486 |
Live tracking and technical data element details for FLOCK 4V-24 (NORAD 46738). FLOCK 4V-24 can be tracked NOW for your location showing map with azimuth and elevation plus other details from your city location.
Track the satellite on the map from your city or location and see movement details for azimuth, elevation, latitude, longitude, range, height, and movement on the map or in text.
IsCatalogInMostPopularTable: catalog: 46738, numindb: 42
Update: records affected: 1
GetName: 46738 FLOCK 4V-24
Hit Count: updated at: Thu, 28 Jan 2021 12:07:39 GMT